"read_dt","SO2 (ppb)","flags","PMT voltage (V)","lamp voltage (V)","lamp intensity (Hz)","internal temp (C)","react chamber temp (C)","sample flow (l/min)","pres (mmHg)","SO2 bkg (ppb)","SO2 coefficient"
2016-02-16 00:00:00,1869E-3,5C000400,-0724,0836,12199,024.1,045.3,0.263,759.2,01.16,0.508
2016-02-16 00:01:00,1722E-3,5C000400,-0724,0835,12039,024.1,045.3,0.263,759.2,01.16,0.508
2016-02-16 00:02:00,1716E-3,5C000400,-0724,0834,12177,024.1,045.3,0.263,759.2,01.16,0.508
2016-02-16 00:03:00,1714E-3,5C000400,-0724,0835,12245,024.1,045.3,0.263,759.2,01.16,0.508
2016-02-16 00:04:00,1531E-3,5C000400,-0724,0835,12142,024.1,045.3,0.263,759.2,01.16,0.508
2016-02-16 00:05:00,1638E-3,5C000400,-0724,0835,12177,024.1,045.3,0.263,759.2,01.16,0.508
2016-02-16 00:06:00,1848E-3,5C000400,-0724,0835,11819,024.1,045.3,0.262,759.2,01.16,0.508
2016-02-16 00:07:00,1708E-3,5C000400,-0724,0834,12182,024.1,045.3,0.262,759.2,01.16,0.508
2016-02-16 00:08:00,1850E-3,5C000400,-0724,0835,12216,024.1,045.3,0.262,759.2,01.16,0.508
2016-02-16 00:09:00,1539E-3,5C000400,-0724,0835,12092,024.1,045.3,0.262,759.2,01.16,0.508
2016-02-16 00:10:00,1694E-3,5C000400,-0724,0836,12172,024.1,045.3,0.262,759.3,01.16,0.508
2016-02-16 00:11:00,1727E-3,5C000400,-0724,0834,12159,024.1,045.3,0.262,759.3,01.16,0.508
2016-02-16 00:12:00,1688E-3,5C000400,-0724,0835,12141,024.1,045.3,0.262,759.3,01.16,0.508
2016-02-16 00:13:00,1683E-3,5C000400,-0724,0835,12045,024.1,045.3,0.262,759.3,01.16,0.508
2016-02-16 00:14:00,1752E-3,5C000400,-0724,0835,12176,024.1,045.3,0.262,759.3,01.16,0.508
2016-02-16 00:15:00,1749E-3,5C000400,-0724,0835,12167,024.1,045.3,0.262,759.3,01.16,0.508
2016-02-16 00:16:00,1767E-3,5C000400,-0724,0836,12183,024.1,045.3,0.262,759.3,01.16,0.508
2016-02-16 00:17:00,1817E-3,5C000400,-0724,0835,12138,024.1,045.3,0.262,759.3,01.16,0.508
2016-02-16 00:18:00,1779E-3,5C000400,-0724,0835,12071,024.1,045.3,0.262,759.3,01.16,0.508
2016-02-16 00:19:00,1747E-3,5C000400,-0724,0835,12079,024.1,045.3,0.262,759.3,01.16,0.508
2016-02-16 00:20:00,1737E-3,5C000400,-0724,0835,12181,024.2,045.3,0.263,759.3,01.16,0.508
2016-02-16 00:21:00,1772E-3,5C000400,-0724,0834,12165,024.1,045.3,0.263,759.3,01.16,0.508
2016-02-16 00:22:00,1811E-3,5C000400,-0724,0835,12199,024.1,045.3,0.263,759.3,01.16,0.508
2016-02-16 00:23:00,1718E-3,5C000400,-0724,0835,12328,024.1,045.3,0.263,759.3,01.16,0.508
2016-02-16 00:24:00,1782E-3,5C000400,-0724,0835,12074,024.2,045.3,0.263,759.3,01.16,0.508
2016-02-16 00:25:00,1726E-3,5C000400,-0724,0835,12185,024.1,045.3,0.263,759.3,01.16,0.508
2016-02-16 00:26:00,1697E-3,5C000400,-0724,0835,12064,024.2,045.3,0.262,759.3,01.16,0.508
2016-02-16 00:27:00,1823E-3,5C000400,-0724,0835,12168,024.2,045.3,0.262,759.2,01.16,0.508
2016-02-16 00:28:00,1805E-3,5C000400,-0724,0835,12035,024.2,045.3,0.263,759.2,01.16,0.508
2016-02-16 00:29:00,1757E-3,5C000400,-0724,0834,12175,024.2,045.3,0.263,759.2,01.16,0.508
2016-02-16 00:30:00,1717E-3,5C000400,-0724,0834,12031,024.2,045.3,0.263,759.2,01.16,0.508
2016-02-16 00:31:00,1753E-3,5C000400,-0724,0835,12264,024.2,045.3,0.263,759.2,01.16,0.508
2016-02-16 00:32:00,1773E-3,5C000400,-0724,0835,12213,024.2,045.3,0.262,759.2,01.16,0.508
2016-02-16 00:33:00,1703E-3,5C000400,-0724,0835,12131,024.2,045.3,0.263,759.2,01.16,0.508
2016-02-16 00:34:00,1764E-3,5C000400,-0724,0836,12203,024.2,045.3,0.263,759.2,01.16,0.508
2016-02-16 00:35:00,1688E-3,5C000400,-0724,0836,12193,024.2,045.3,0.262,759.2,01.16,0.508
2016-02-16 00:36:00,1727E-3,5C000400,-0724,0836,12162,024.2,045.3,0.263,759.2,01.16,0.508
2016-02-16 00:37:00,1786E-3,5C000400,-0724,0836,12255,024.2,045.3,0.263,759.2,01.16,0.508
2016-02-16 00:38:00,1788E-3,5C000400,-0724,0835,12193,024.2,045.3,0.263,759.2,01.16,0.508
2016-02-16 00:39:00,1796E-3,5C000400,-0724,0835,12221,024.2,045.3,0.262,759.2,01.16,0.508
2016-02-16 00:40:00,1707E-3,5C000400,-0724,0834,12198,024.2,045.3,0.263,759.2,01.16,0.508
2016-02-16 00:41:00,1779E-3,5C000400,-0724,0835,12059,024.2,045.3,0.263,759.2,01.16,0.508
2016-02-16 00:42:00,1791E-3,5C000400,-0724,0835,12106,024.2,045.3,0.263,759.2,01.16,0.508
2016-02-16 00:43:00,1729E-3,5C000400,-0724,0835,12279,024.2,045.3,0.263,759.2,01.16,0.508
2016-02-16 00:44:00,1796E-3,5C000400,-0724,0834,12145,024.2,045.3,0.262,759.2,01.16,0.508
2016-02-16 00:45:00,1752E-3,5C000400,-0724,0835,12163,024.2,045.3,0.262,759.2,01.16,0.508
2016-02-16 00:46:00,1809E-3,5C000400,-0724,0835,12154,024.2,045.3,0.263,759.2,01.16,0.508
2016-02-16 00:47:00,1751E-3,5C000400,-0724,0835,12353,024.2,045.3,0.263,759.2,01.16,0.508
2016-02-16 00:48:00,1727E-3,5C000400,-0724,0836,12037,024.2,045.3,0.263,759.3,01.16,0.508
2016-02-16 00:49:00,1767E-3,5C000400,-0724,0835,12087,024.2,045.3,0.262,759.3,01.16,0.508
2016-02-16 00:50:00,1742E-3,5C000400,-0724,0835,12132,024.2,045.3,0.262,759.2,01.16,0.508
2016-02-16 00:51:00,1747E-3,5C000400,-0724,0835,12128,024.2,045.3,0.262,759.2,01.16,0.508
2016-02-16 00:52:00,1683E-3,5C000400,-0724,0835,12112,024.3,045.3,0.262,759.3,01.16,0.508
2016-02-16 00:53:00,1807E-3,5C000400,-0724,0835,12085,024.3,045.3,0.262,759.3,01.16,0.508
2016-02-16 00:54:00,1749E-3,5C000400,-0724,0835,12106,024.2,045.3,0.262,759.3,01.16,0.508
2016-02-16 00:55:00,1645E-3,5C000400,-0724,0835,12282,024.2,045.3,0.262,759.3,01.16,0.508
2016-02-16 00:56:00,1859E-3,5C000400,-0724,0835,12095,024.3,045.3,0.262,759.3,01.16,0.508
2016-02-16 00:57:00,1656E-3,5C000400,-0724,0835,12164,024.3,045.3,0.262,759.3,01.16,0.508
2016-02-16 00:58:00,1774E-3,5C000400,-0724,0834,12273,024.3,045.3,0.262,759.3,01.16,0.508
2016-02-16 00:59:00,1753E-3,5C000400,-0724,0835,12067,024.3,045.3,0.262,759.3,01.16,0.508
2016-02-16 01:00:00,1718E-3,5C000400,-0724,0836,11969,024.3,045.3,0.262,759.3,01.16,0.508
2016-02-16 01:01:00,1737E-3,5C000400,-0724,0835,12190,024.3,045.3,0.262,759.2,01.16,0.508
2016-02-16 01:02:00,1784E-3,5C000400,-0724,0834,12130,024.3,045.3,0.262,759.2,01.16,0.508
2016-02-16 01:03:00,1687E-3,5C000400,-0724,0834,12137,024.3,045.3,0.262,759.2,01.16,0.508
2016-02-16 01:04:00,1689E-3,5C000400,-0724,0835,12018,024.3,045.3,0.262,759.2,01.16,0.508
2016-02-16 01:05:00,1685E-3,5C000400,-0724,0836,12026,024.3,045.3,0.263,759.2,01.16,0.508
2016-02-16 01:06:00,1650E-3,5C000400,-0724,0834,12190,024.3,045.3,0.263,759.2,01.16,0.508
2016-02-16 01:07:00,1727E-3,5C000400,-0724,0835,12084,024.3,045.3,0.263,759.2,01.16,0.508
2016-02-16 01:08:00,1712E-3,5C000400,-0724,0834,12131,024.3,045.3,0.262,759.2,01.16,0.508
2016-02-16 01:09:00,1683E-3,5C000400,-0724,0834,11970,024.3,045.3,0.262,759.2,01.16,0.508
2016-02-16 01:10:00,1790E-3,5C000400,-0724,0834,12162,024.3,045.3,0.262,759.2,01.16,0.508
2016-02-16 01:11:00,1764E-3,5C000400,-0724,0834,12155,024.3,045.3,0.262,759.2,01.16,0.508
2016-02-16 01:12:00,1656E-3,5C000400,-0724,0834,12192,024.4,045.3,0.262,759.2,01.16,0.508
2016-02-16 01:13:00,1698E-3,5C000400,-0724,0835,12155,024.3,045.3,0.262,759.2,01.16,0.508
2016-02-16 01:14:00,1600E-3,5C000400,-0724,0835,12248,024.3,045.3,0.262,759.2,01.16,0.508
2016-02-16 01:15:00,1788E-3,5C000400,-0724,0835,12181,024.3,045.3,0.262,759.2,01.16,0.508
2016-02-16 01:16:00,1754E-3,5C000400,-0724,0834,12173,024.3,045.3,0.262,759.2,01.16,0.508
2016-02-16 01:17:00,1659E-3,5C000400,-0724,0836,12175,024.3,045.3,0.262,759.2,01.16,0.508
2016-02-16 01:18:00,1685E-3,5C000400,-0724,0834,12164,024.3,045.3,0.262,759.2,01.16,0.508
2016-02-16 01:19:00,1631E-3,5C000400,-0724,0834,12100,024.3,045.3,0.262,759.2,01.16,0.508
2016-02-16 01:20:00,1767E-3,5C000400,-0724,0835,12177,024.3,045.3,0.262,759.2,01.16,0.508
2016-02-16 01:21:00,1678E-3,5C000400,-0724,0834,12037,024.3,045.3,0.262,759.2,01.16,0.508
2016-02-16 01:22:00,1681E-3,5C000400,-0724,0835,12120,024.3,045.3,0.262,759.3,01.16,0.508
2016-02-16 01:23:00,1806E-3,5C000400,-0724,0834,11994,024.4,045.3,0.262,759.3,01.16,0.508
2016-02-16 01:24:00,1781E-3,5C000400,-0724,0835,11964,024.3,045.3,0.262,759.3,01.16,0.508
2016-02-16 01:25:00,1740E-3,5C000400,-0724,0835,12195,024.4,045.3,0.263,759.3,01.16,0.508
2016-02-16 01:26:00,1755E-3,5C000400,-0724,0834,12072,024.3,045.3,0.262,759.2,01.16,0.508
2016-02-16 01:27:00,1708E-3,5C000400,-0724,0834,11983,024.4,045.3,0.262,759.2,01.16,0.508
2016-02-16 01:28:00,1752E-3,5C000400,-0724,0835,12256,024.4,045.3,0.262,759.2,01.16,0.508
2016-02-16 01:29:00,1712E-3,5C000400,-0724,0835,12172,024.4,045.3,0.262,759.2,01.16,0.508
2016-02-16 01:30:00,1710E-3,5C000400,-0724,0835,12104,024.4,045.3,0.262,759.2,01.16,0.508
2016-02-16 01:31:00,1768E-3,5C000400,-0724,0835,12100,024.4,045.3,0.262,759.2,01.16,0.508
2016-02-16 01:32:00,1802E-3,5C000400,-0724,0835,12263,024.4,045.3,0.262,759.2,01.16,0.508
2016-02-16 01:33:00,1733E-3,5C000400,-0724,0836,12098,024.4,045.3,0.262,759.1,01.16,0.508
2016-02-16 01:34:00,1699E-3,5C000400,-0724,0836,12223,024.4,045.3,0.262,759.1,01.16,0.508
2016-02-16 01:35:00,1781E-3,5C000400,-0724,0836,12241,024.4,045.3,0.262,759.0,01.16,0.508
2016-02-16 01:36:00,1740E-3,5C000400,-0724,0835,12081,024.4,045.3,0.262,759.0,01.16,0.508
2016-02-16 01:37:00,1631E-3,5C000400,-0724,0836,12178,024.4,045.3,0.262,759.0,01.16,0.508
2016-02-16 01:38:00,1750E-3,5C000400,-0724,0835,12168,024.4,045.3,0.262,759.1,01.16,0.508
2016-02-16 01:39:00,1809E-3,5C000400,-0724,0835,12268,024.4,045.3,0.262,759.1,01.16,0.508
2016-02-16 01:40:00,1705E-3,5C000400,-0724,0835,12157,024.4,045.3,0.262,759.1,01.16,0.508
2016-02-16 01:41:00,1660E-3,5C000400,-0724,0835,12036,024.4,045.3,0.262,759.1,01.16,0.508
2016-02-16 01:42:00,1745E-3,5C000400,-0724,0835,12202,024.4,045.3,0.262,759.0,01.16,0.508
2016-02-16 01:43:00,1716E-3,5C000400,-0724,0835,12091,024.4,045.3,0.262,759.0,01.16,0.508
2016-02-16 01:44:00,1644E-3,5C000400,-0724,0835,12134,024.5,045.3,0.262,759.0,01.16,0.508
2016-02-16 01:45:00,1742E-3,5C000400,-0724,0835,12277,024.4,045.3,0.262,759.1,01.16,0.508
2016-02-16 01:46:00,1778E-3,5C000400,-0724,0835,12115,024.5,045.3,0.262,759.1,01.16,0.508
2016-02-16 01:47:00,1789E-3,5C000400,-0724,0834,12064,024.4,045.3,0.262,759.1,01.16,0.508
2016-02-16 01:48:00,1739E-3,5C000400,-0724,0836,12146,024.5,045.3,0.262,759.1,01.16,0.508
2016-02-16 01:49:00,1760E-3,5C000400,-0724,0836,12137,024.5,045.3,0.262,759.1,01.16,0.508
2016-02-16 01:50:00,1601E-3,5C000400,-0724,0836,12056,024.5,045.3,0.262,759.1,01.16,0.508
2016-02-16 01:51:00,1645E-3,5C000400,-0724,0835,12115,024.5,045.3,0.262,759.1,01.16,0.508
2016-02-16 01:52:00,1697E-3,5C000400,-0724,0835,11930,024.5,045.3,0.262,759.1,01.16,0.508
2016-02-16 01:53:00,1812E-3,5C000400,-0724,0834,12176,024.5,045.3,0.262,759.1,01.16,0.508
2016-02-16 01:54:00,1752E-3,5C000400,-0724,0835,12153,024.5,045.3,0.262,759.1,01.16,0.508
2016-02-16 01:55:00,1618E-3,5C000400,-0724,0835,12231,024.5,045.3,0.262,759.1,01.16,0.508
2016-02-16 01:56:00,1686E-3,5C000400,-0724,0834,12129,024.5,045.3,0.262,759.1,01.16,0.508
2016-02-16 01:57:00,1728E-3,5C000400,-0724,0835,12049,024.5,045.3,0.262,759.1,01.16,0.508
2016-02-16 01:58:00,1702E-3,5C000400,-0724,0836,12035,024.5,045.3,0.262,759.1,01.16,0.508
2016-02-16 01:59:00,1852E-3,5C000400,-0724,0835,12330,024.5,045.3,0.262,759.1,01.16,0.508
2016-02-16 02:00:00,1745E-3,5C000400,-0724,0835,12161,024.5,045.3,0.262,759.1,01.16,0.508
2016-02-16 02:01:00,1773E-3,5C000400,-0724,0836,12057,024.5,045.3,0.262,759.1,01.16,0.508
2016-02-16 02:02:00,1803E-3,5C000400,-0724,0835,12105,024.5,045.3,0.262,759.1,01.16,0.508
2016-02-16 02:03:00,1621E-3,5C000400,-0724,0836,12129,024.5,045.3,0.262,759.1,01.16,0.508
2016-02-16 02:04:00,1814E-3,5C000400,-0724,0835,12052,024.6,045.3,0.262,759.1,01.16,0.508
2016-02-16 02:05:00,1644E-3,5C000400,-0724,0835,12162,024.6,045.3,0.261,759.1,01.16,0.508
2016-02-16 02:06:00,1788E-3,5C000400,-0724,0835,12254,024.6,045.3,0.261,759.1,01.16,0.508
2016-02-16 02:07:00,1768E-3,5C000400,-0724,0835,12125,024.6,045.3,0.262,759.1,01.16,0.508
2016-02-16 02:08:00,1709E-3,5C000400,-0724,0835,12161,024.6,045.3,0.262,759.1,01.16,0.508
2016-02-16 02:09:00,1755E-3,5C000400,-0724,0835,12269,024.6,045.3,0.262,759.1,01.16,0.508
2016-02-16 02:10:00,1728E-3,5C000400,-0724,0835,12192,024.6,045.3,0.262,759.1,01.16,0.508
2016-02-16 02:11:00,1871E-3,5C000400,-0724,0835,12106,024.6,045.3,0.262,759.1,01.16,0.508
2016-02-16 02:12:00,1683E-3,5C000400,-0724,0835,12005,024.6,045.3,0.262,759.1,01.16,0.508
2016-02-16 02:13:00,1759E-3,5C000400,-0724,0835,12224,024.6,045.3,0.262,759.1,01.16,0.508
2016-02-16 02:14:00,1748E-3,5C000400,-0724,0835,12245,024.6,045.3,0.262,759.1,01.16,0.508
2016-02-16 02:15:00,1743E-3,5C000400,-0724,0835,12074,024.6,045.3,0.262,759.1,01.16,0.508
2016-02-16 02:16:00,1718E-3,5C000400,-0724,0836,12192,024.6,045.3,0.262,759.1,01.16,0.508
2016-02-16 02:17:00,1814E-3,5C000400,-0724,0835,12030,024.6,045.3,0.261,759.1,01.16,0.508
2016-02-16 02:18:00,1809E-3,5C000400,-0724,0836,12019,024.6,045.3,0.261,759.1,01.16,0.508
2016-02-16 02:19:00,1695E-3,5C000400,-0724,0835,12161,024.6,045.3,0.261,759.1,01.16,0.508
2016-02-16 02:20:00,1759E-3,5C000400,-0724,0835,12187,024.6,045.3,0.261,759.1,01.16,0.508
2016-02-16 02:21:00,1694E-3,5C000400,-0724,0835,12009,024.6,045.3,0.262,759.1,01.16,0.508
2016-02-16 02:22:00,1740E-3,5C000400,-0724,0835,12092,024.6,045.3,0.262,759.1,01.16,0.508
2016-02-16 02:23:00,1761E-3,5C000400,-0724,0835,12131,024.6,045.4,0.262,759.1,01.16,0.508
2016-02-16 02:24:00,1715E-3,5C000400,-0724,0836,12148,024.6,045.3,0.262,759.1,01.16,0.508
2016-02-16 02:25:00,1765E-3,5C000400,-0724,0835,12219,024.7,045.4,0.262,759.1,01.16,0.508
2016-02-16 02:26:00,1637E-3,5C000400,-0724,0835,12206,024.7,045.3,0.262,759.1,01.16,0.508
2016-02-16 02:27:00,1701E-3,5C000400,-0724,0834,12059,024.7,045.3,0.262,759.1,01.16,0.508
2016-02-16 02:28:00,1742E-3,5C000400,-0724,0835,12080,024.7,045.3,0.262,759.1,01.16,0.508
2016-02-16 02:29:00,1686E-3,5C000400,-0724,0835,12072,024.7,045.3,0.262,759.1,01.16,0.508
2016-02-16 02:30:00,1662E-3,5C000400,-0724,0835,12100,024.7,045.3,0.262,759.2,01.16,0.508
2016-02-16 02:31:00,1682E-3,5C000400,-0724,0835,12133,024.7,045.3,0.262,759.1,01.16,0.508
2016-02-16 02:32:00,1664E-3,5C000400,-0724,0835,12135,024.7,045.3,0.262,759.1,01.16,0.508
2016-02-16 02:33:00,1859E-3,5C000400,-0724,0836,12169,024.7,045.3,0.262,759.2,01.16,0.508
2016-02-16 02:34:00,1672E-3,5C000400,-0724,0835,12176,024.7,045.3,0.262,759.1,01.16,0.508
2016-02-16 02:35:00,1851E-3,5C000400,-0724,0834,12116,024.7,045.3,0.262,759.1,01.16,0.508
2016-02-16 02:36:00,1803E-3,5C000400,-0724,0835,12210,024.7,045.3,0.262,759.1,01.16,0.508
2016-02-16 02:37:00,1848E-3,5C000400,-0724,0834,12062,024.7,045.3,0.262,759.1,01.16,0.508
2016-02-16 02:38:00,1733E-3,5C000400,-0724,0835,12176,024.7,045.3,0.262,759.1,01.16,0.508
2016-02-16 02:39:00,1784E-3,5C000400,-0724,0835,12059,024.7,045.3,0.262,759.1,01.16,0.508
2016-02-16 02:40:00,1687E-3,5C000400,-0724,0835,12194,024.7,045.3,0.262,759.0,01.16,0.508
2016-02-16 02:41:00,1884E-3,5C000400,-0724,0835,12195,024.8,045.3,0.262,759.0,01.16,0.508
2016-02-16 02:42:00,1789E-3,5C000400,-0724,0836,12243,024.8,045.3,0.262,758.9,01.16,0.508
2016-02-16 02:43:00,1798E-3,5C000400,-0724,0835,12160,024.7,045.3,0.262,758.9,01.16,0.508
2016-02-16 02:44:00,1799E-3,5C000400,-0724,0835,12188,024.7,045.3,0.262,758.8,01.16,0.508
2016-02-16 02:45:00,1803E-3,5C000400,-0724,0835,12324,024.8,045.3,0.262,758.9,01.16,0.508
2016-02-16 02:46:00,1717E-3,5C000400,-0724,0836,12044,024.8,045.3,0.262,758.9,01.16,0.508
2016-02-16 02:47:00,1867E-3,5C000400,-0724,0835,12125,024.8,045.3,0.262,758.9,01.16,0.508
2016-02-16 02:48:00,1666E-3,5C000400,-0724,0835,12070,024.8,045.3,0.262,758.9,01.16,0.508
2016-02-16 02:49:00,1746E-3,5C000400,-0724,0835,12144,024.8,045.3,0.262,758.9,01.16,0.508
2016-02-16 02:50:00,1713E-3,5C000400,-0724,0835,12122,024.8,045.3,0.262,758.9,01.16,0.508
2016-02-16 02:51:00,1679E-3,5C000400,-0724,0835,12002,024.8,045.3,0.262,758.9,01.16,0.508
2016-02-16 02:52:00,1750E-3,5C000400,-0724,0835,11914,024.8,045.3,0.261,758.9,01.16,0.508
2016-02-16 02:53:00,1768E-3,5C000400,-0724,0834,12119,024.8,045.3,0.261,758.9,01.16,0.508
2016-02-16 02:54:00,1698E-3,5C000400,-0724,0835,12227,024.8,045.3,0.261,758.9,01.16,0.508
2016-02-16 02:55:00,1571E-3,5C000400,-0724,0834,12294,024.8,045.4,0.261,759.0,01.16,0.508
2016-02-16 02:56:00,1704E-3,5C000400,-0724,0834,12034,024.8,045.3,0.262,759.0,01.16,0.508
2016-02-16 02:57:00,1634E-3,5C000400,-0724,0836,12212,024.8,045.3,0.262,759.0,01.16,0.508
2016-02-16 02:58:00,1809E-3,5C000400,-0724,0835,12219,024.8,045.3,0.262,759.0,01.16,0.508
2016-02-16 02:59:00,1814E-3,5C000400,-0724,0835,12129,024.8,045.3,0.262,758.9,01.16,0.508
2016-02-16 03:00:00,1749E-3,5C000400,-0724,0835,12060,024.8,045.3,0.261,758.9,01.16,0.508
2016-02-16 03:01:00,1735E-3,5C000400,-0724,0834,12071,024.9,045.3,0.261,758.9,01.16,0.508
2016-02-16 03:02:00,1787E-3,5C000400,-0724,0835,12154,024.8,045.3,0.262,758.9,01.16,0.508
2016-02-16 03:03:00,1717E-3,5C000400,-0724,0834,12186,024.9,045.3,0.262,758.9,01.16,0.508
2016-02-16 03:04:00,1665E-3,5C000400,-0724,0834,12150,024.8,045.3,0.261,758.9,01.16,0.508
2016-02-16 03:05:00,1715E-3,5C000400,-0724,0834,11904,024.9,045.3,0.261,758.9,01.16,0.508
2016-02-16 03:06:00,1735E-3,5C000400,-0724,0835,12109,024.9,045.4,0.261,758.9,01.16,0.508
2016-02-16 03:07:00,1761E-3,5C000400,-0724,0835,12144,024.9,045.3,0.261,758.9,01.16,0.508
2016-02-16 03:08:00,1695E-3,5C000400,-0724,0836,12265,024.9,045.3,0.262,758.9,01.16,0.508
2016-02-16 03:09:00,1721E-3,5C000400,-0724,0835,12136,024.9,045.4,0.261,758.9,01.16,0.508
2016-02-16 03:10:00,1783E-3,5C000400,-0724,0834,12035,024.9,045.3,0.261,758.9,01.16,0.508
2016-02-16 03:11:00,1685E-3,5C000400,-0724,0835,12137,024.9,045.3,0.261,758.9,01.16,0.508
2016-02-16 03:12:00,1756E-3,5C000400,-0724,0835,12072,024.9,045.3,0.262,758.8,01.16,0.508
2016-02-16 03:13:00,1658E-3,5C000400,-0724,0835,12059,024.9,045.3,0.261,758.8,01.16,0.508
2016-02-16 03:14:00,1793E-3,5C000400,-0724,0835,12126,024.9,045.3,0.261,758.8,01.16,0.508
2016-02-16 03:15:00,1753E-3,5C000400,-0724,0835,12138,024.9,045.4,0.261,758.8,01.16,0.508
2016-02-16 03:16:00,1739E-3,5C000400,-0724,0835,12138,024.9,045.3,0.261,758.8,01.16,0.508
2016-02-16 03:17:00,1729E-3,5C000400,-0724,0836,12203,024.9,045.3,0.261,758.8,01.16,0.508
2016-02-16 03:18:00,1729E-3,5C000400,-0724,0836,12179,024.9,045.3,0.261,758.8,01.16,0.508
2016-02-16 03:19:00,1703E-3,5C000400,-0724,0835,12082,024.9,045.3,0.261,758.7,01.16,0.508
2016-02-16 03:20:00,1779E-3,5C000400,-0724,0835,12187,024.9,045.3,0.261,758.7,01.16,0.508
2016-02-16 03:21:00,1743E-3,5C000400,-0724,0835,12226,025.0,045.3,0.261,758.7,01.16,0.508
2016-02-16 03:22:00,1758E-3,5C000400,-0724,0835,12185,025.0,045.3,0.261,758.7,01.16,0.508
2016-02-16 03:23:00,1763E-3,5C000400,-0724,0835,12220,025.0,045.3,0.261,758.7,01.16,0.508
2016-02-16 03:24:00,1820E-3,5C000400,-0724,0834,12077,025.0,045.3,0.261,758.7,01.16,0.508
2016-02-16 03:25:00,1584E-3,5C000400,-0724,0836,12178,025.0,045.3,0.261,758.7,01.16,0.508
2016-02-16 03:26:00,1745E-3,5C000400,-0724,0835,12280,025.0,045.3,0.261,758.7,01.16,0.508
2016-02-16 03:27:00,1763E-3,5C000400,-0724,0835,12179,025.0,045.4,0.261,758.7,01.16,0.508
2016-02-16 03:28:00,1557E-3,5C000400,-0724,0835,12177,025.0,045.3,0.261,758.7,01.16,0.508
2016-02-16 03:29:00,1739E-3,5C000400,-0724,0834,12107,025.0,045.3,0.261,758.7,01.16,0.508
2016-02-16 03:30:00,1858E-3,5C000400,-0724,0835,12308,025.0,045.3,0.261,758.7,01.16,0.508
2016-02-16 03:31:00,1861E-3,5C000400,-0724,0834,12066,025.0,045.3,0.261,758.7,01.16,0.508
2016-02-16 03:32:00,1838E-3,5C000400,-0724,0835,12249,025.1,045.3,0.261,758.7,01.16,0.508
2016-02-16 03:33:00,1821E-3,5C000400,-0724,0835,12083,025.0,045.3,0.261,758.7,01.16,0.508
2016-02-16 03:34:00,1684E-3,5C000400,-0724,0834,12239,025.0,045.3,0.261,758.7,01.16,0.508
2016-02-16 03:35:00,1756E-3,5C000400,-0724,0835,12187,025.1,045.4,0.261,758.7,01.16,0.508
2016-02-16 03:36:00,1781E-3,5C000400,-0724,0834,12220,025.0,045.3,0.261,758.7,01.16,0.508
2016-02-16 03:37:00,1720E-3,5C000400,-0724,0835,12185,025.1,045.4,0.261,758.7,01.16,0.508
2016-02-16 03:38:00,1808E-3,5C000400,-0724,0835,12082,025.1,045.3,0.261,758.7,01.16,0.508
2016-02-16 03:39:00,1642E-3,5C000400,-0724,0835,12346,025.1,045.3,0.261,758.7,01.16,0.508
2016-02-16 03:40:00,1788E-3,5C000400,-0724,0835,12112,025.1,045.3,0.261,758.7,01.16,0.508
2016-02-16 03:41:00,1782E-3,5C000400,-0724,0835,12177,025.1,045.4,0.261,758.7,01.16,0.508
2016-02-16 03:42:00,1947E-3,5C000400,-0724,0834,12027,025.1,045.3,0.262,758.7,01.16,0.508
2016-02-16 03:43:00,1770E-3,5C000400,-0724,0834,12216,025.1,045.3,0.261,758.7,01.16,0.508
2016-02-16 03:44:00,1767E-3,5C000400,-0724,0835,12221,025.1,045.3,0.261,758.7,01.16,0.508
2016-02-16 03:45:00,1907E-3,5C000400,-0724,0835,12102,025.1,045.3,0.261,758.8,01.16,0.508
2016-02-16 03:46:00,1828E-3,5C000400,-0724,0835,12210,025.1,045.4,0.261,758.7,01.16,0.508
2016-02-16 03:47:00,1823E-3,5C000400,-0724,0835,11998,025.1,045.4,0.261,758.7,01.16,0.508
2016-02-16 03:48:00,1737E-3,5C000400,-0724,0835,12209,025.1,045.4,0.261,758.7,01.16,0.508
2016-02-16 03:49:00,1824E-3,5C000400,-0724,0835,12151,025.1,045.3,0.261,758.7,01.16,0.508
2016-02-16 03:50:00,1796E-3,5C000400,-0724,0836,12238,025.1,045.4,0.261,758.7,01.16,0.508
2016-02-16 03:51:00,1733E-3,5C000400,-0724,0836,12222,025.1,045.3,0.261,758.8,01.16,0.508
2016-02-16 03:52:00,1827E-3,5C000400,-0724,0836,12003,025.1,045.3,0.261,758.8,01.16,0.508
2016-02-16 03:53:00,1776E-3,5C000400,-0724,0835,12308,025.2,045.3,0.261,758.8,01.16,0.508
2016-02-16 03:54:00,1804E-3,5C000400,-0724,0834,12160,025.2,045.3,0.261,758.8,01.16,0.508
2016-02-16 03:55:00,1743E-3,5C000400,-0724,0835,12325,025.2,045.3,0.261,758.8,01.16,0.508
2016-02-16 03:56:00,1834E-3,5C000400,-0724,0835,12039,025.2,045.3,0.261,758.8,01.16,0.508
2016-02-16 03:57:00,1705E-3,5C000400,-0724,0835,12089,025.2,045.3,0.261,758.8,01.16,0.508
2016-02-16 03:58:00,1716E-3,5C000400,-0724,0835,12200,025.2,045.3,0.261,758.8,01.16,0.508
2016-02-16 03:59:00,1708E-3,5C000400,-0724,0836,12036,025.2,045.3,0.261,758.8,01.16,0.508
2016-02-16 04:00:00,1757E-3,5C000400,-0724,0834,12187,025.2,045.4,0.261,758.8,01.16,0.508
2016-02-16 04:01:00,1894E-3,5C000400,-0724,0835,12289,025.2,045.3,0.260,758.8,01.16,0.508
2016-02-16 04:02:00,1767E-3,5C000400,-0724,0835,12003,025.2,045.3,0.260,758.8,01.16,0.508
2016-02-16 04:03:00,1773E-3,5C000400,-0724,0835,12033,025.2,045.3,0.260,758.8,01.16,0.508
2016-02-16 04:04:00,1873E-3,5C000400,-0724,0835,12047,025.2,045.3,0.261,758.8,01.16,0.508
2016-02-16 04:05:00,1653E-3,5C000400,-0724,0836,12015,025.2,045.3,0.261,758.8,01.16,0.508
2016-02-16 04:06:00,1655E-3,5C000400,-0724,0835,12263,025.2,045.3,0.261,758.8,01.16,0.508
2016-02-16 04:07:00,1780E-3,5C000400,-0724,0835,12163,025.2,045.3,0.261,758.8,01.16,0.508
2016-02-16 04:08:00,1786E-3,5C000400,-0724,0835,12134,025.2,045.3,0.261,758.8,01.16,0.508
2016-02-16 04:09:00,1728E-3,5C000400,-0724,0836,12085,025.2,045.3,0.261,758.8,01.16,0.508
2016-02-16 04:10:00,1782E-3,5C000400,-0724,0836,12134,025.2,045.3,0.260,758.8,01.16,0.508
2016-02-16 04:11:00,1714E-3,5C000400,-0724,0835,12187,025.2,045.3,0.261,758.8,01.16,0.508
2016-02-16 04:12:00,1715E-3,5C000400,-0724,0834,12168,025.3,045.3,0.261,758.8,01.16,0.508
2016-02-16 04:13:00,1582E-3,5C000400,-0724,0835,11872,025.3,045.3,0.261,758.8,01.16,0.508
2016-02-16 04:14:00,1792E-3,5C000400,-0724,0835,12153,025.3,045.3,0.261,758.8,01.16,0.508
2016-02-16 04:15:00,1818E-3,5C000400,-0724,0835,12386,025.3,045.4,0.261,758.8,01.16,0.508
2016-02-16 04:16:00,1690E-3,5C000400,-0724,0835,11995,025.3,045.4,0.260,758.8,01.16,0.508
2016-02-16 04:17:00,1721E-3,5C000400,-0724,0835,12047,025.3,045.3,0.261,758.8,01.16,0.508
2016-02-16 04:18:00,1794E-3,5C000400,-0724,0834,12001,025.3,045.4,0.261,758.8,01.16,0.508
2016-02-16 04:19:00,1686E-3,5C000400,-0724,0835,12092,025.3,045.3,0.261,758.8,01.16,0.508
2016-02-16 04:20:00,1927E-3,5C000400,-0724,0835,12144,025.3,045.3,0.261,758.8,01.16,0.508